This is the latest recevied weather packets stored in our database for station/object KG4YZY-1. If no packets are shown the sender has not sent any weather packets the latest 10 day(s).
| Time | Temp. | Humidity | Pressure | Rain* | Wind** | Luminosity | Snow |
|---|---|---|---|---|---|---|---|
| 1777489203 | 28.33° C | 66% | 1016.7 hPa | 0 mm | - | - | - |
| 1777488904 | 28.33° C | 65% | 1016.9 hPa | 0 mm | - | - | - |
| 1777488604 | 28.89° C | 63% | 1017.1 hPa | 0 mm | - | - | - |
| 1777488303 | 28.89° C | 64% | 1017.1 hPa | 0 mm | - | - | - |
| 1777488004 | 28.89° C | 61% | 1017.3 hPa | 0 mm | - | - | - |
| 1777487704 | 29.44° C | 60% | 1017.2 hPa | 0 mm | - | - | - |
| 1777487403 | 28.89° C | 62% | 1017.2 hPa | 0 mm | - | - | - |
| 1777487104 | 28.89° C | 61% | 1017.2 hPa | 0 mm | - | - | - |
| 1777486803 | 29.44° C | 58% | 1017.3 hPa | 0 mm | - | - | - |
| 1777486504 | 29.44° C | 56% | 1017.3 hPa | 0 mm | - | - | - |
| 1777486204 | 29.44° C | 57% | 1017.2 hPa | 0 mm | - | - | - |
| 1777485904 | 29.44° C | 55% | 1017.3 hPa | 0 mm | - | - | - |
| 1777485604 | 29.44° C | 54% | 1017.4 hPa | 0 mm | - | - | - |
| 1777485304 | 29.44° C | 54% | 1017.4 hPa | 0 mm | - | - | - |
| 1777485004 | 28.89° C | 55% | 1017.5 hPa | 0 mm | - | - | - |
| 1777484704 | 28.89° C | 55% | 1017.6 hPa | 0 mm | - | - | - |
| 1777484404 | 28.89° C | 53% | 1017.5 hPa | 0 mm | - | - | - |
| 1777484103 | 29.44° C | 54% | 1017.6 hPa | 0 mm | - | - | - |
| 1777483804 | 29.44° C | 53% | 1017.7 hPa | 0 mm | - | - | - |
| 1777483503 | 29.44° C | 48% | 1017.8 hPa | 0 mm | - | - | - |
| 1777483204 | 29.44° C | 51% | 1017.9 hPa | 0 mm | - | - | - |
| 1777482904 | 29.44° C | 52% | 1017.8 hPa | 0 mm | - | - | - |
| 1777482603 | 29.44° C | 55% | 1017.9 hPa | 0 mm | - | - | - |
| 1777482303 | 28.89° C | 55% | 1017.9 hPa | 0 mm | - | - | - |
| 1777482003 | 28.89° C | 54% | 1018 hPa | 0 mm | - | - | - |
* Rain latest hour (hover to see other rain measurements)
** Current wind speed in m/s (hover to see current wind gust speed)